TimeAKST,TemperatureF,Dew PointF,Humidity,Sea Level PressureIn,VisibilityMPH,Wind Direction,Wind SpeedMPH,Gust SpeedMPH,PrecipitationIn,Events,Conditions,WindDirDegrees,DateUTC
12:04 AM,24.8,21.2,86,29.28,3.0,NE,17.3,-,0.00,Snow,Snow,50,2012-12-09 09:04:00
12:17 AM,24.8,21.2,86,29.28,2.0,NE,18.4,-,0.00,Snow,Snow,50,2012-12-09 09:17:00
12:30 AM,24.8,21.2,86,29.28,1.5,NE,16.1,-,0.01,Snow,Snow,50,2012-12-09 09:30:00
12:44 AM,24.8,21.2,86,29.28,1.5,NE,16.1,-,0.01,Snow,Snow,40,2012-12-09 09:44:00
12:53 AM,24.1,21.9,91,29.29,1.5,NE,17.3,-,0.01,Snow,Snow,40,2012-12-09 09:53:00
1:03 AM,24.8,21.2,86,29.27,1.8,NE,16.1,-,0.00,Snow,Snow,40,2012-12-09 10:03:00
1:17 AM,24.8,21.2,86,29.27,2.0,NE,13.8,-,0.00,Snow,Snow,40,2012-12-09 10:17:00
1:45 AM,24.8,21.2,86,29.27,3.0,NE,16.1,-,0.00,Snow,Snow,50,2012-12-09 10:45:00
1:53 AM,24.1,21.9,91,29.28,2.5,NE,15.0,23.0,0.00,Snow,Snow,50,2012-12-09 10:53:00
2:03 AM,24.8,21.2,86,29.27,3.0,NE,12.7,-,0.00,Snow,Snow,40,2012-12-09 11:03:00
2:26 AM,24.8,21.2,86,29.28,2.5,NE,12.7,-,0.00,Snow,Snow,40,2012-12-09 11:26:00
2:36 AM,24.8,21.2,86,29.28,2.0,NE,11.5,-,0.00,Snow,Snow,40,2012-12-09 11:36:00
2:50 AM,24.8,21.2,86,29.28,3.0,NE,11.5,-,0.01,Snow,Snow,40,2012-12-09 11:50:00
3:20 AM,24.8,21.2,86,29.29,8.0,NE,10.4,-,0.00,Snow,Snow,50,2012-12-09 12:20:00
3:53 AM,24.1,21.9,91,29.30,9.0,NE,9.2,-,0.00,Snow,Snow,50,2012-12-09 12:53:00
4:53 AM,24.1,21.9,91,29.30,5.0,NE,10.4,-,0.00,Snow,Snow,40,2012-12-09 13:53:00
5:17 AM,24.8,21.2,86,29.30,2.0,NE,10.4,-,0.00,Snow,Snow,50,2012-12-09 14:17:00
5:25 AM,24.8,21.2,86,29.30,1.8,NE,9.2,-,0.01,Snow,Snow,50,2012-12-09 14:25:00
5:39 AM,24.8,21.2,86,29.30,2.5,NE,9.2,-,0.01,Snow,Snow,50,2012-12-09 14:39:00
5:51 AM,24.8,21.2,86,29.30,1.2,NE,10.4,-,0.02,Snow,Snow,40,2012-12-09 14:51:00
5:53 AM,24.1,21.9,91,29.31,1.0,NE,10.4,-,0.02,Snow,Snow,40,2012-12-09 14:53:00
6:34 AM,24.8,21.2,86,29.31,2.0,NE,9.2,-,0.01,Snow,Snow,40,2012-12-09 15:34:00
6:53 AM,24.1,21.9,91,29.31,1.8,NE,10.4,-,0.01,Snow,Snow,40,2012-12-09 15:53:00
6:55 AM,24.8,21.2,86,29.31,2.0,NE,10.4,-,0.00,Snow,Snow,40,2012-12-09 15:55:00
7:53 AM,25.0,21.9,88,29.33,9.0,NNE,11.5,-,0.00,Snow,Light Snow,30,2012-12-09 16:53:00
8:53 AM,25.0,21.9,88,29.34,9.0,NE,12.7,-,0.00,Snow,Light Snow,40,2012-12-09 17:53:00
9:53 AM,25.0,23.0,92,29.36,2.0,NE,11.5,-,0.00,Snow,Light Snow,40,2012-12-09 18:53:00
9:55 AM,24.8,23.0,93,29.35,2.0,NE,11.5,-,0.00,Snow,Light Snow,40,2012-12-09 18:55:00
10:53 AM,25.0,23.0,92,29.36,1.2,NE,15.0,-,0.01,Snow,Light Snow,40,2012-12-09 19:53:00
11:02 AM,24.8,23.0,93,29.34,1.2,NE,16.1,-,0.00,Snow,Light Snow,40,2012-12-09 20:02:00
11:09 AM,24.8,23.0,93,29.35,3.0,NE,15.0,-,0.00,Snow,Light Snow,40,2012-12-09 20:09:00
11:35 AM,24.8,23.0,93,29.37,2.0,NE,9.2,-,0.00,Snow,Light Snow,50,2012-12-09 20:35:00
11:46 AM,24.8,23.0,93,29.37,2.0,ENE,11.5,-,0.00,Snow,Light Snow,60,2012-12-09 20:46:00
11:50 AM,24.8,23.0,93,29.37,0.8,NE,9.2,-,0.00,Snow,Light Snow,50,2012-12-09 20:50:00
11:53 AM,25.0,23.0,92,29.39,0.8,NE,10.4,-,0.01,Snow,Light Snow,50,2012-12-09 20:53:00
12:31 PM,24.8,23.0,93,29.38,1.0,NE,10.4,-,0.02,Snow,Light Snow,50,2012-12-09 21:31:00
12:53 PM,25.0,23.0,92,29.39,1.2,NE,8.1,-,0.02,Snow,Light Snow,40,2012-12-09 21:53:00
1:10 PM,26.6,23.0,86,29.39,0.8,NNE,9.2,-,0.01,Snow,Light Snow,30,2012-12-09 22:10:00
1:53 PM,26.1,24.1,92,29.41,0.8,NNE,8.1,-,0.02,Snow,Light Snow,30,2012-12-09 22:53:00
2:17 PM,26.6,24.8,93,29.40,4.0,NNE,8.1,-,0.00,Snow,Light Snow,30,2012-12-09 23:17:00
2:53 PM,26.1,24.1,92,29.42,8.0,NNE,8.1,-,0.00,Snow,Light Snow,20,2012-12-09 23:53:00
3:36 PM,26.6,24.8,93,29.42,4.0,NNE,6.9,-,0.00,Snow,Light Snow,30,2012-12-10 00:36:00
3:44 PM,26.6,24.8,93,29.42,2.0,NNE,5.8,-,0.01,Snow,Light Snow,30,2012-12-10 00:44:00
3:53 PM,27.0,25.0,92,29.43,2.5,NNE,6.9,-,0.01,Snow,Light Snow,30,2012-12-10 00:53:00
4:15 PM,26.6,24.8,93,29.42,3.0,NNE,6.9,-,0.00,Snow,Light Snow,30,2012-12-10 01:15:00
4:43 PM,26.6,24.8,93,29.43,2.5,NNE,5.8,-,0.00,Snow,Light Snow,30,2012-12-10 01:43:00
4:53 PM,27.0,25.0,92,29.45,1.5,NNE,4.6,-,0.00,Snow,Light Snow,20,2012-12-10 01:53:00
5:53 PM,27.0,25.0,92,29.45,3.0,NE,6.9,-,0.03,Snow,Light Snow,40,2012-12-10 02:53:00
6:39 PM,26.6,24.8,93,29.45,3.0,North,6.9,-,0.01,Snow,Light Snow,10,2012-12-10 03:39:00
6:47 PM,26.6,24.8,93,29.45,2.0,North,6.9,-,0.01,Snow,Light Snow,360,2012-12-10 03:47:00
6:53 PM,27.0,25.0,92,29.47,1.5,North,5.8,-,0.02,Snow,Light Snow,10,2012-12-10 03:53:00
7:53 PM,27.0,26.1,96,29.48,3.0,North,4.6,-,0.01,Snow,Light Snow,10,2012-12-10 04:53:00
8:53 PM,28.0,26.1,92,29.50,2.5,North,3.5,-,0.02,Snow,Light Snow,350,2012-12-10 05:53:00
9:10 PM,28.4,26.6,93,29.49,3.0,Calm,Calm,-,0.00,Snow,Light Snow,0,2012-12-10 06:10:00
9:33 PM,28.4,26.6,93,29.51,4.0,Calm,Calm,-,0.00,Snow,Light Snow,0,2012-12-10 06:33:00
9:53 PM,28.0,26.1,92,29.52,5.0,Calm,Calm,-,0.00,Snow,Light Snow,0,2012-12-10 06:53:00
10:53 PM,26.1,25.0,96,29.53,9.0,Calm,Calm,-,0.01,,Overcast,0,2012-12-10 07:53:00
11:53 PM,27.0,25.0,92,29.55,10.0,Calm,Calm,-,N/A,,Overcast,0,2012-12-10 08:53:00